Powrót do katalogu

STARLINK-30421

AktywnyŁącznośćVLEO
NORAD 58107·PAYLOAD·🇺🇸 United States

Wystrzelony Oct 21, 2023 z Vandenberg Space Force Base

Loading…

Następne Przeloty (najbliższe 24 godziny)

TLE

ŚwieżeSource: CelesTrak SupGP

Epoka: Sep 14, 2026, 21:33 UTC

1 58107C 23161L   26257.89840278 -.00009060  00000+0 -26786-3 0  2577
2 58107  53.1596 349.5899 0001202  82.7646  88.8333 15.34374801    17

Śledź STARLINK-30421 w czasie rzeczywistym z AllMySat

Download on the App Store